Location: Buffign�court
(47.8126°N, 6.0176°E)
Time: 02:51:21
(UTC+00:00)

Meteor 1-21 Rocket - Pass Details

Date: 16 June 2021
Orbit: 834 x 907 km, 81.2° (Epoch: 04 August)

Event Time Altitude Azimuth Distance (km) Brightness Sun altitude
Exits shadow 23:39:36 29° 211° (SSW) 1,522 5.1 -18.8°
Maximum altitude 23:42:30 64° 284° (WNW) 946 4.4 -18.8°
Drops below altitude 10° 23:48:12 10° 6° (N) 2,525 7.9 -18.8°
Sets 23:50:42 0° 10° (N) 3,479 9.0 -18.7°
